STARLINK-11613, 63136

Orbit data source: Space-Track

STARLINK-11613, 63136 is a payload satellite owned by SpaceX/Seattle (US) in LEO that was launched on Mon, 03 Mar 2025 UTC via an FALCON 9 launch vehicle from the Air Force Eastern Test Range (AFETR). Payload-class satellites include a variety of spacecraft equipped with specific instruments for various scientific and technological missions. These include communications satellites like Starlink; space stations such as the ISS; scientific satellites like the Hubble; Earth observation satellites from companies like Planet Labs, Umbra, and HawkEye 360; GPS; miniature CubeSats for education and research; and military/defense satellites.

Loading next visibility...
Identifier
63136, 2025-043E
Orbit
LEO
Country
Flag of USUS
Related business
Manufacturer
SpaceX/Seattle
Mission
Operational Commercial Communications
Bus & Motor
STARLINK V2MD, Unknown motor
Mass
960 kg wet, ~910 kg dry
Launch date (UTC)
2025-03-03 (8 months ago)
Launch vehicle
FALCON 9
Launch site
Air Force Eastern Test Range (AFETR)
Object type
Payload
Rocket body
Debris
Shape & HBR
Box + 2 Pan, 18.1 m
Radar Cross Section
36.964 m², Large (>1 m²)

Expand to show TLE details & history
Last TLE update: 1 day ago

TLE from 1 day ago
0 STARLINK-11613
1 63136U 25043E   25305.47575880  .00276821  00000-0  20802-2 0  9992
2 63136  42.9988 303.8862 0000750 317.1913  42.8896 15.70949161 39303
Epoch: 2025-11-01T11:25Z
TLE epoch observation values (Epoch: 2025-11-01T11:25:05.560Z)
Latitude
-0.00002°
Longitude
91.60771°
Altitude
355.584 km
Speed
7.698 km/s
True Right ascension
20h 15m 32s
True Declination
0° 00' 00"
Sunlit
Object was in daylight at epoch
Visualization orbit readout
Latitude
Unknown
Longitude
Unknown
Altitude
Unknown
Speed
Unknown
Apparent Right ascension
Unknown
Apparent Declination
Unknown
Sunlit
N/A
Visualization observer readout
Local Sidereal Time
18:38:30
Azimuth
Unknown
Elevation
Unknown
Doppler factor
Unknown
Orbital elements
Apogee altitude
358.67 km
Perigee altitude
357.66 km
Semi-major axis
6,736.302 km
Eccentricity
0.00008
Inclination
42.9988°
RAAN
303.8862°
Arg. of periapsis
317.1913°
True anomaly
42.89545°
Mean anomaly
42.8896°
Eccentric anomaly
42.89252°
Mean motion
3.92564 °/min
Orbital period
91.7 mins
BSTAR
0.0020802
Loading maneuver chart data...
Computing Atmospheric mass density...
Loading historical data...
Loading historical data...
Loading historical data...
Loading historical data...
Loading historical data...
Loading historical data...
Loading historical data...

Documentation

Showing up to 5 results
|